Погода в Жлобине

Погода в Жлобине : погода сейчас, прогноз погоды и архив. Всё, что Вы хотите узнать о погоде в Жлобине!

Хотите узнать прогноз погоды в Жлобине? Тогда Вам сюда: Погода в Жлобине

Поиск расширенной информации на нашем сайте:

Другие новости

Новости СМИ2

Главная страница сайта

Новости сайта

03.07.2017

Напоминаем, что на нашем специализированном сайте Метеоцентр.Азия вы можете получить высокодетализированные автоматические прогнозы погоды по пунктам России, СНГ и мира в авиационном формате (включающие направление и скорость ветра, видимость, явления погоды, количество и форму облачности, нижнюю и верхнюю границу облачности).


Погода в Жлобине - сегодня

Время (UTC), дата Ветер
(°,м/с) 
Видим.   Явления Облачность Т
(°С)
Тd
(°С)
f(%) Тe
(°С)
Pmin
(гПа)
dP
(гПа)
Po
(мм)
O2
(г/м3)
Тmin Tmax R s Состояние
почвы
12 11.12.17 170 (Ю) 16000 м  {снег}  10/6 1000 м средняя 
[Sc|Ac trans]
-1.2 -3.5 84 -2  1005.5  741  300           
15 11.12.17 180 (Ю) 2500 м  слаб. ливневой снег  10/9 200 м кучево-дожд., средняя 
[Cb cap|Ac As]
-1.4 -2.2 94 -3  1007.1  1.6  742  301      0.3     
18 11.12.17 180 (Ю) 10 км  слаб. ливневой снег  10/9 300 м кучево-дожд., средняя 
[Cb cap|Ac As]
-0.7 -1.7 93 -3  1007.8  0.7  743  300    -0.7  0.9   
21 11.12.17 160 (Ю) 8000 м  дымка  ясно 
-1.5 -2.3 94 -2  1007.8  743  301           
00 12.12.17 150 (ЮВ) 8000 м  дымка  8/0 средняя 
[Ac trans]
-1.6 -2.4 94 -4  1007.8  -0.1  743  301           
03 12.12.17 150 (ЮВ) 6000 м  дымка  8/0 средняя 
[Ac trans]
-0.5 -1.1 96 -2  1006.9  -0.9  742  300         
06 12.12.17 160 (Ю) 5000 м  дымка{снег}  10/8 200 м 
[St]
+0.6 -0.2 94 -1  1006.2  -0.6  741  298  -1.8    0.0  равномерный
мокрый или
старый снег
100% 
09 12.12.17 170 (Ю) 9000 м  дымка  10/8 300 м средняя 
[St|Ac As]
+1 +0.2 94 -1  1005.8  -0.4  741  297           
12 12.12.17 170 (Ю) 16000 м    9/0 средняя 
[Ac As]
+2 +0.9 92 +1  1005.4  -0.3  741  296           
15 12.12.17 170 (Ю) 16000 м    10/3 1000 м средняя 
[Sc|Ac As]
+2.2 +1.2 93 +1  1006.6  1.2  742  296           
18 12.12.17 190 (Ю) 15000 м    10/4 1000 м средняя 
[Sc|Ac As]
+3 +1.7 91 +4  1007.2  0.7  742  296    +3     
21 12.12.17 240 (ЮЗ) 20000 м    9/0 средняя 
[Ac und]
+5.1 +3.4 89 +6  1008.1  743  293           
00 13.12.17 260 (З) 25000 м    9/0 средняя 
[Ac und]
+6 +4.1 88 +5  1009  0.9  744  293           
03 13.12.17 270 (З) 25000 м    9/0 средняя 
[Ac trans]
+6.1 +3.5 83 +7  1010.5  1.4  745  293           
06 13.12.17 250 (З) 25000 м    9/0 средняя 
[Ac As]
+4.2 -0.3 72 +5  1013  2.4  747  296  +3        мокрый или
старый снег
10-40% 
09 13.12.17 240 (ЮЗ) 25000 м    10/8 600 м средняя 
[Sc|Ac As]
+3.3 -0.8 74 +4  1015.1  748  298           
12 13.12.17 270 (З) 20000 м    10/0 средняя 
[Ac As]
+3.4 -1 73 +4  1014.5  -0.5  748  298           
15 13.12.17 260 (З) 25000 м    9/9 1000 м 
[Sc]
+2.4 -1.2 77 +3  1014.9  0.3  748  299           
18 13.12.17 тихо ()   20000 м    8/0 средняя 
[Ac trans]
+1.2 -1.1 85 +1  1015  748  300    +4.2       
21 13.12.17 310 (СЗ) 25000 м    9/0 средняя 
[Ac und]
+0.2 -1.5 88 +1  1014.2  -0.9  747  301           
00 14.12.17 тихо ()   14000 м    ясно 
-1.1 -2 94 -1  1013  -1.2  746  302           
03 14.12.17 110 (В) 12000 м    3/0 средняя 
[Ac trans]
-1.4 -2 96 -1  1011.3  -1.7  745  302           
06 14.12.17 тихо ()   8000 м  дымка  10/8 600 м средняя 
[Sc|Ac As]
-1.1 -2 94 -1  1009.6  -1.6  744  301  -2         
09 14.12.17 160 (Ю) 8000 м  дымка  8/8 600 м 
[Sc]
+0 -1.2 92 +1  1008  -1.6  743  299           
12 14.12.17 160 (Ю) 7000 м  дымка  10/10 50 м 
[St]
+0.5 -0.3 94 1005.7  -2.2  741  298           
Время (UTC), дата Ветер
(°,м/с) 
Видим.   Явления Облачность Т
(°С)
Тd
(°С)
f(%) Тe
(°С)
Pmin
(гПа)
dP
(гПа)
Po
(мм)
O2
(г/м3)
Тmin Tmax R s Состояние
почвы

Для получения пояснительной информации подведите курсор к названию столбца.

ПОГОДА в Жлобине - архив

Всё, что Вы хотите узнать о погоде в Жлобине - удобно и подробно!

Выберите нужную дату (начиная с 1 января 2015* года) и нажмите кнопку "Найти".
Будут отображены архивные сводки погоды по пункту Жлобин, начиная с указанной даты.


Отображать данные в формате CSV (для использования в таблицах Excel)


Внимание! Наш архив погоды предназначен исключительно для личного некоммерческого использования в познавательных целях. Если Вам необходимы официальные справки о состоянии погоды (для производственных, юридических, коммерческих и т.п. целей), обращайтесь в органы Росгидромета.

*Примечание: данная дата относится к архиву по метеостанциям СССР (Россия, СНГ, Балтия).
Архив по метеостанциям Зарубежной Европы и Азии (кроме Китая) хранится 10 дней, по другим регионам земного шара (Китай, Африка, Америка, Австралия, Океания) - 1 день.

Жлобин - район местоположения метеостанции


Название, широта, долгота, высота метеостанции:
Жлобин 52.9°ш. 30°д. 142 м над ур. моря [Беларусь]

Дополнительная информация

В oтличие oт бoльшинства пoгoдных сайтoв мы публикуем пoдрoбную метеoинфoрмацию в детальнoм прoфессиoнальнoм фoрмате.

Характеристики температуры и влажнoсти вoздуха измеряются на высoте 2 м в тени вдали oт зданий и деревьев.
Скoрoсть ветра измеряется на высoте 10 м (на урoвне рoста челoвека скoрoсть ветра ниже в 1.5-2 раза). Если метеoстанция нахoдится в гoрoде или в лесу, тo скoрoсть ветра занижена на 2-4 м/с пo сравнению с oткрытым местoм. Скoрoсть ветра над акватoриями крупных рек и oзёр, а также на вершинах хoлмoв на 2-5 м/с выше, чем в oбычных услoвиях.
Атмoсфернoе давление в разных тoчках местнoсти мoжет значительнo oтличаться oт давления на метеoстанции, в зависимoсти oт услoвий рельефа (при пoдъёме на 10 м давление пoнижается примернo на 1 мм рт.ст.).